カタログに戻る

IRIDIUM 175

運用中通信PO
NORAD 43928·PAYLOAD·🇺🇸 United States

打ち上げ Jan 11, 2019 から Vandenberg Space Force Base

Loading…

次のパス (今後24時間)

TLE

最新Source: CelesTrak SupGP

元期: Sep 14, 2026, 21:25 UTC

1 43928C 19002G   26257.89270833  .00003245  00000+0  95877-3 0  2579
2 43928  86.4467 253.0042 0001139 322.6741   6.1153 14.43642819    17

AllMySatでIRIDIUM 175をリアルタイム追跡

Download on the App Store